TimeCST,TemperatureF,Dew PointF,Humidity,Sea Level PressureIn,VisibilityMPH,Wind Direction,Wind SpeedMPH,Gust SpeedMPH,PrecipitationIn,Events,Conditions,WindDirDegrees,DateUTC
12:15 AM,35.6,17.6,48,30.23,10.0,SSW,5.8,-,N/A,,Clear,200,2012-12-31 06:15:00
12:35 AM,35.6,17.6,48,30.23,10.0,SSW,5.8,-,N/A,,Clear,210,2012-12-31 06:35:00
12:55 AM,35.6,17.6,48,30.23,10.0,SW,3.5,-,N/A,,Clear,220,2012-12-31 06:55:00
1:15 AM,35.6,17.6,48,30.23,10.0,SSW,4.6,-,N/A,,Scattered Clouds,210,2012-12-31 07:15:00
1:35 AM,37.4,15.8,41,30.21,10.0,SSW,6.9,-,N/A,,Partly Cloudy,200,2012-12-31 07:35:00
1:55 AM,37.4,15.8,41,30.21,10.0,SSW,6.9,-,N/A,,Mostly Cloudy,200,2012-12-31 07:55:00
2:15 AM,37.4,15.8,41,30.20,10.0,SW,6.9,-,N/A,,Overcast,220,2012-12-31 08:15:00
2:35 AM,37.4,17.6,45,30.20,10.0,SSW,6.9,-,N/A,,Overcast,200,2012-12-31 08:35:00
2:55 AM,37.4,17.6,45,30.20,10.0,SSW,9.2,-,N/A,,Overcast,210,2012-12-31 08:55:00
3:15 AM,37.4,17.6,45,30.21,10.0,SSW,9.2,-,N/A,,Overcast,210,2012-12-31 09:15:00
3:35 AM,37.4,17.6,45,30.21,10.0,SW,11.5,-,N/A,,Overcast,220,2012-12-31 09:35:00
3:55 AM,37.4,17.6,45,30.21,10.0,SW,9.2,-,N/A,,Overcast,220,2012-12-31 09:55:00
4:15 AM,37.4,17.6,45,30.20,10.0,SSW,6.9,-,N/A,,Overcast,200,2012-12-31 10:15:00
4:35 AM,37.4,17.6,45,30.19,10.0,SW,6.9,-,N/A,,Overcast,220,2012-12-31 10:35:00
4:55 AM,37.4,19.4,48,30.19,10.0,SW,6.9,-,N/A,,Overcast,230,2012-12-31 10:55:00
5:15 AM,37.4,19.4,48,30.19,10.0,SSW,6.9,-,N/A,,Overcast,210,2012-12-31 11:15:00
5:35 AM,37.4,19.4,48,30.18,10.0,SW,6.9,-,N/A,,Overcast,220,2012-12-31 11:35:00
5:55 AM,37.4,21.2,52,30.19,10.0,WSW,9.2,16.1,N/A,,Overcast,240,2012-12-31 11:55:00
6:15 AM,35.6,26.6,70,30.19,4.0,SW,10.4,-,N/A,,Overcast,220,2012-12-31 12:15:00
6:35 AM,33.8,28.4,81,30.19,1.5,SW,5.8,-,N/A,,Overcast,230,2012-12-31 12:35:00
6:55 AM,33.8,28.4,81,30.19,1.8,WSW,4.6,-,0.01,,Overcast,240,2012-12-31 12:55:00
7:15 AM,32.0,28.4,87,30.19,1.0,SW,3.5,-,0.01,,Overcast,230,2012-12-31 13:15:00
7:35 AM,32.0,28.4,87,30.18,0.8,Calm,Calm,-,0.02,,Overcast,0,2012-12-31 13:35:00
7:55 AM,32.0,28.4,87,30.18,0.8,Calm,Calm,-,0.02,,Overcast,0,2012-12-31 13:55:00
8:15 AM,32.0,28.4,87,30.18,0.8,South,3.5,-,0.01,,Overcast,180,2012-12-31 14:15:00
8:35 AM,32.0,30.2,93,30.18,0.5,South,4.6,-,0.02,,Overcast,180,2012-12-31 14:35:00
8:55 AM,32.0,30.2,93,30.17,0.5,Calm,Calm,-,0.04,,Overcast,0,2012-12-31 14:55:00
9:15 AM,32.0,28.4,87,30.17,0.8,Calm,Calm,-,0.01,,Overcast,0,2012-12-31 15:15:00
9:35 AM,32.0,30.2,93,30.17,0.5,Calm,Calm,-,0.02,,Overcast,0,2012-12-31 15:35:00
9:55 AM,32.0,28.4,87,30.17,0.8,Calm,Calm,-,0.03,,Overcast,0,2012-12-31 15:55:00
10:15 AM,32.0,30.2,93,30.17,0.8,Calm,Calm,-,0.03,,Overcast,0,2012-12-31 16:15:00
10:35 AM,32.0,30.2,93,30.17,0.8,Calm,Calm,-,0.06,,Overcast,0,2012-12-31 16:35:00
10:55 AM,33.8,30.2,87,30.18,0.8,Calm,Calm,-,0.09,,Overcast,0,2012-12-31 16:55:00
11:15 AM,33.8,30.2,87,30.18,1.0,Calm,Calm,-,0.03,,Overcast,0,2012-12-31 17:15:00
11:35 AM,32.0,30.2,93,30.16,1.2,Calm,Calm,-,0.05,,Overcast,0,2012-12-31 17:35:00
11:55 AM,33.8,30.2,87,30.16,1.0,Calm,Calm,-,0.08,,Overcast,0,2012-12-31 17:55:00
12:15 PM,32.0,30.2,93,30.14,0.8,Calm,Calm,-,0.01,,Overcast,0,2012-12-31 18:15:00
12:35 PM,32.0,30.2,93,30.13,1.0,Calm,Calm,-,0.04,,Overcast,0,2012-12-31 18:35:00
12:55 PM,32.0,30.2,93,30.12,0.8,Calm,Calm,-,0.06,,Overcast,0,2012-12-31 18:55:00
1:15 PM,32.0,30.2,93,30.10,1.2,Calm,Calm,-,0.02,,Overcast,0,2012-12-31 19:15:00
1:35 PM,32.0,30.2,93,30.10,1.2,Calm,Calm,-,0.04,,Overcast,0,2012-12-31 19:35:00
1:55 PM,32.0,30.2,93,30.09,1.2,Calm,Calm,-,0.05,,Overcast,0,2012-12-31 19:55:00
2:15 PM,33.8,30.2,87,30.08,1.5,Calm,Calm,-,0.02,,Overcast,0,2012-12-31 20:15:00
2:35 PM,33.8,30.2,87,30.09,2.0,Calm,Calm,-,0.03,,Overcast,0,2012-12-31 20:35:00
2:55 PM,33.8,30.2,87,30.08,1.5,Calm,Calm,-,0.04,,Overcast,0,2012-12-31 20:55:00
3:15 PM,33.8,30.2,87,30.07,1.5,Calm,Calm,-,0.01,,Overcast,0,2012-12-31 21:15:00
3:35 PM,33.8,30.2,87,30.08,1.0,Calm,Calm,-,0.01,,Overcast,0,2012-12-31 21:35:00
3:55 PM,33.8,30.2,87,30.07,0.5,ENE,3.5,-,0.01,,Overcast,70,2012-12-31 21:55:00
4:15 PM,33.8,30.2,87,30.07,0.8,NE,3.5,-,N/A,,Overcast,50,2012-12-31 22:15:00
4:35 PM,33.8,30.2,87,30.07,1.0,East,3.5,-,0.01,,Overcast,80,2012-12-31 22:35:00
4:55 PM,33.8,30.2,87,30.07,1.0,ENE,4.6,-,0.01,,Overcast,70,2012-12-31 22:55:00
5:15 PM,33.8,30.2,87,30.07,1.0,ENE,3.5,-,N/A,,Overcast,70,2012-12-31 23:15:00
5:35 PM,33.8,30.2,87,30.07,1.8,ENE,3.5,-,N/A,,Overcast,70,2012-12-31 23:35:00
5:55 PM,33.8,30.2,87,30.07,1.8,NE,4.6,-,N/A,,Overcast,50,2012-12-31 23:55:00
6:15 PM,32.0,30.2,93,30.07,2.0,NE,5.8,-,N/A,,Overcast,50,2013-01-01 00:15:00
6:35 PM,33.8,30.2,87,30.08,2.0,NE,5.8,-,N/A,,Overcast,40,2013-01-01 00:35:00
7:15 PM,32.0,30.2,93,30.09,2.5,NE,5.8,-,N/A,,Overcast,40,2013-01-01 01:15:00
7:35 PM,32.0,30.2,93,30.08,2.5,NE,6.9,-,N/A,,Overcast,40,2013-01-01 01:35:00
7:55 PM,32.0,30.2,93,30.07,2.5,ENE,8.1,-,N/A,,Overcast,70,2013-01-01 01:55:00
8:15 PM,32.0,30.2,93,30.08,3.0,NE,5.8,-,N/A,,Overcast,40,2013-01-01 02:15:00
8:35 PM,32.0,30.2,93,30.08,4.0,NE,5.8,-,N/A,,Overcast,50,2013-01-01 02:35:00
8:55 PM,32.0,30.2,93,30.08,5.0,NE,6.9,-,N/A,,Overcast,50,2013-01-01 02:55:00
9:15 PM,32.0,30.2,93,30.08,5.0,NE,5.8,-,N/A,,Overcast,50,2013-01-01 03:15:00
9:35 PM,32.0,30.2,93,30.09,5.0,NE,4.6,-,N/A,,Overcast,50,2013-01-01 03:35:00
9:55 PM,32.0,30.2,93,30.09,4.0,NNE,4.6,-,N/A,,Overcast,30,2013-01-01 03:55:00
10:15 PM,32.0,30.2,93,30.10,3.0,NE,5.8,-,N/A,,Overcast,40,2013-01-01 04:15:00
10:35 PM,32.0,30.2,93,30.10,2.5,NE,6.9,-,N/A,,Overcast,40,2013-01-01 04:35:00
10:55 PM,32.0,30.2,93,30.11,2.5,NE,4.6,-,N/A,,Overcast,40,2013-01-01 04:55:00
11:15 PM,32.0,28.4,87,30.11,2.5,NNE,3.5,-,N/A,,Overcast,20,2013-01-01 05:15:00
11:35 PM,32.0,28.4,87,30.11,2.5,NNE,6.9,-,N/A,,Overcast,30,2013-01-01 05:35:00